Wind_Speed
43 44 45 47 48 51 53 55 57 60 63 66 69 72 74 78 81 84 87 88 86 81 78 78 74 60 50 46 44 46 48 48 47 47 47 50 52 50 41 31 30 31 34
48 49 50 52 53 55 57 59 62 65 69 71 74 77 79 83 86 89 90 87 86 82 80 78 62 51 47 44 44 46 48 50 50 49 47 46 51 50 42 29 22 25 30
51 52 54 56 58 61 63 66 68 70 74 77 79 81 84 88 89 90 89 87 84 82 78 64 52 47 47 47 47 48 49 50 52 53 51 47 45 48 46 32 25 24 27
54 57 59 61 64 66 68 70 73 76 78 81 84 87 90 91 91 92 87 86 85 79 64 49 45 46 47 49 50 51 52 52 52 54 56 54 49 43 44 40 29 25 24
58 61 64 67 69 71 73 75 78 81 83 86 88 92 93 91 91 88 88 86 75 61 50 47 48 48 50 52 54 55 55 55 55 54 55 58 57 52 43 40 35 29 25
64 65 68 70 72 74 76 79 82 86 89 91 92 92 90 91 89 88 87 82 68 59 57 55 54 55 55 57 58 60 60 60 59 58 57 57 58 57 53 44 37 33 28
66 68 71 72 75 77 80 84 87 90 93 93 92 92 91 90 90 87 82 72 67 65 65 63 62 62 63 64 65 65 65 65 65 64 62 60 58 58 56 52 45 38 34
70 72 75 77 80 83 86 88 91 94 93 92 91 89 92 91 86 80 71 66 64 65 65 66 65 64 65 65 65 66 66 67 67 67 66 65 63 60 60 57 53 47 42
76 77 80 83 86 89 91 92 90 91 91 89 91 91 88 78 78 69 60 61 63 65 61 57 60 60 62 60 62 65 69 70 70 71 70 68 67 67 62 62 61 56 51
80 83 86 88 90 88 88 89 90 89 90 92 90 83 74 75 71 71 73 75 80 73 73 71 73 73 72 72 71 75 75 72 72 73 72 72 72 69 68 66 63 63 60
85 87 87 85 87 87 88 89 91 93 90 83 78 76 75 77 80 82 83 84 84 82 81 84 83 82 81 80 83 87 84 83 82 78 77 76 76 78 75 72 71 69 67
79 79 81 83 85 87 90 91 85 80 81 79 79 80 83 85 86 89 91 91 93 91 91 94 89 89 91 89 89 91 95 94 91 87 86 86 81 82 81 78 78 77 74
78 79 82 86 90 90 87 84 82 81 80 82 84 87 89 92 93 96 98 99 102 101 100 101 102 103 99 98 102 101 102 102 96 93 89 88 90 91 88 88 87 83 82
80 84 86 86 81 78 79 80 83 86 87 89 91 94 98 100 103 104 106 108 109 109 109 107 109 110 110 110 110 111 109 108 105 100 97 93 95 96 94 94 95 93 91
75 69 70 71 75 79 83 86 89 93 96 99 102 103 105 106 108 109 111 114 116 117 118 118 120 120 119 121 120 120 117 114 109 103 100 100 96 96 101 98 99 98 97
68 73 77 80 84 86 88 90 93 96 99 103 106 109 111 113 115 117 119 122 123 124 127 129 129 127 129 128 130 125 121 117 112 106 106 103 105 106 105 105 105 106 103
76 81 82 85 89 92 95 97 101 104 107 110 113 115 117 121 124 124 123 125 128 128 129 131 132 133 132 132 128 124 121 116 114 110 109 110 110 111 113 114 113 110 111
82 86 90 93 97 99 103 106 108 110 112 115 118 122 124 126 126 128 131 132 132 133 135 134 135 132 131 130 129 124 120 115 113 112 111 112 112 114 116 117 117 117 116
88 91 93 95 97 102 106 109 109 112 117 120 122 125 126 129 131 132 135 137 137 137 137 136 135 134 129 127 125 123 119 114 109 106 104 104 107 110 113 111 112 115 116
94 97 101 103 105 106 109 115 116 120 120 121 125 131 134 133 132 133 135 136 136 135 132 130 130 127 125 123 121 119 114 107 105 102 102 102 103 104 105 104 104 105 111
101 104 106 107 110 113 116 117 123 126 124 126 130 133 135 133 135 134 134 132 131 130 128 126 122 120 118 115 112 109 102 97 94 92 95 97 100 96 94 96 96 97 102
106 111 114 115 117 122 125 127 129 132 134 134 133 134 135 135 134 130 127 126 125 123 121 118 113 111 109 107 102 98 93 88 82 81 82 84 87 88 87 87 87 88 89
117 117 113 117 125 130 132 131 133 134 134 133 131 128 128 127 126 123 121 121 120 116 111 108 104 100 99 96 93 88 86 82 77 74 73 75 78 80 80 81 81 81 80
122 125 124 126 128 132 132 138 138 136 130 127 125 124 122 119 119 118 114 110 107 104 99 94 90 88 87 86 83 81 79 78 75 72 70 70 71 72 73 75 76 75 75
127 131 133 132 134 133 134 137 138 134 130 126 123 119 116 113 108 105 102 99 97 94 89 87 83 81 80 79 77 76 76 73 71 66 63 63 63 63 65 66 67 68 69
137 134 134 134 132 131 132 133 131 128 126 122 115 108 104 100 96 93 91 93 89 86 83 80 76 73 69 68 70 70 67 65 64 60 59 59 59 58 59 60 61 62 63
Wind_Direction
262 265 267 270 272 276 279 282 286 290 293 295 296 299 303 306 308 309 311 313 314 314 314 316 318 316 314 314 314 315 319 322 323 328 331 334 336 341 334 307 280 268 255
264 266 268 270 274 278 281 284 287 289 293 295 297 300 303 306 307 308 310 311 311 311 313 315 316 311 310 313 314 315 318 321 323 326 329 333 334 339 342 329 301 280 264
263 265 268 271 275 279 282 285 288 292 294 296 299 302 303 305 305 307 309 308 309 311 313 315 313 310 310 312 314 315 317 319 322 323 325 329 332 334 340 333 318 298 276
264 266 269 273 277 281 284 287 289 292 294 297 299 301 303 304 306 306 306 307 309 311 314 312 308 306 307 309 311 312 313 314 317 319 321 323 327 330 332 334 323 308 289
269 270 273 276 279 281 284 288 291 293 295 297 298 300 303 304 303 304 305 308 310 310 309 308 307 306 305 306 306 307 306 306 308 310 312 315 317 320 324 325 326 315 300
268 271 275 278 282 285 287 289 291 293 295 297 299 300 301 301 303 304 306 308 307 305 307 307 305 304 303 303 303 304 303 303 304 304 304 305 307 310 313 315 315 313 305
271 273 277 281 284 285 287 289 291 293 295 297 299 299 299 301 303 306 307 306 307 308 308 307 305 303 301 300 299 298 298 298 298 299 299 298 299 300 302 304 305 303 301
273 276 279 281 284 285 287 290 291 293 295 296 297 298 300 302 304 304 304 304 305 304 302 302 301 299 298 295 294 293 292 291 291 291 291 291 292 292 293 293 294 294 292
276 279 281 283 285 287 289 291 292 292 295 295 297 299 300 300 301 300 297 297 299 299 299 296 294 298 296 296 294 292 288 285 284 284 285 284 285 285 283 284 286 285 284
278 281 282 283 286 289 289 290 291 292 295 297 297 297 295 297 296 295 292 292 295 294 293 292 295 297 296 298 298 297 294 292 283 278 278 277 278 277 277 275 274 277 277
280 281 283 285 287 288 289 291 292 294 295 295 293 293 291 292 293 292 292 292 292 292 293 295 295 292 295 296 298 296 295 295 291 282 274 270 271 270 269 270 271 268 269
281 282 284 286 287 289 290 292 292 290 289 289 289 290 290 291 292 292 292 292 294 294 292 294 293 293 293 292 293 291 295 294 292 285 283 273 267 264 265 263 264 265 262
281 283 284 286 287 289 289 288 287 289 291 291 291 291 292 293 292 291 294 296 298 298 297 295 294 292 291 290 290 290 289 290 291 284 279 277 270 265 261 260 259 258 257
282 283 285 288 286 286 286 289 290 291 290 290 291 291 293 294 295 295 295 296 296 296 294 293 293 293 293 291 290 290 289 288 288 283 276 274 269 266 264 260 258 257 255
282 283 283 284 288 290 290 290 290 291 292 291 292 294 295 295 295 295 295 295 295 294 294 294 293 293 291 292 291 290 288 287 286 280 275 271 267 264 261 260 258 256 254
287 286 286 287 288 289 290 290 290 291 293 294 295 295 296 296 296 296 295 294 295 295 294 293 293 292 290 289 288 287 285 283 281 277 273 269 266 263 261 259 257 257 254
288 289 289 290 292 293 293 294 295 296 296 295 295 296 296 295 296 296 295 295 293 291 291 290 289 290 289 288 288 286 285 283 280 276 273 269 266 264 263 260 258 256 254
293 295 296 296 295 295 295 294 294 294 295 296 296 295 294 294 292 292 292 293 293 292 293 292 290 289 289 288 286 285 284 282 281 278 275 272 269 267 266 266 263 261 259
293 294 295 296 297 296 295 296 295 295 295 295 295 298 297 294 293 294 294 293 293 293 292 291 289 288 287 287 286 286 286 285 284 282 280 278 274 271 270 273 270 268 268
295 296 296 296 296 295 295 297 297 298 296 296 296 295 295 294 294 293 293 293 292 290 289 289 289 288 288 288 289 288 288 288 286 286 285 282 279 276 274 272 270 268 266
293 294 295 295 296 296 295 294 294 295 295 296 296 297 300 298 297 296 294 291 290 290 289 289 290 290 291 290 289 288 287 286 285 284 282 280 279 277 274 271 269 267 265
294 293 291 291 292 292 293 294 294 294 295 298 300 301 300 299 297 293 292 291 290 291 291 291 292 292 292 292 291 290 290 289 286 284 282 281 280 277 273 271 268 266 263
297 296 296 295 293 294 295 296 297 300 302 302 302 300 299 298 296 294 293 293 293 293 292 293 294 293 293 293 293 293 292 291 289 287 285 281 277 275 273 271 269 267 266
299 299 299 298 297 298 301 303 304 304 302 301 301 301 298 297 296 296 295 294 294 294 295 295 294 295 295 293 293 293 292 291 290 288 286 281 277 275 273 272 270 268 266
299 299 300 301 302 303 305 305 304 303 303 303 301 300 298 297 296 295 294 295 295 295 296 296 297 296 295 294 293 292 290 290 288 285 282 279 276 275 273 272 271 269 267
299 301 302 304 305 305 305 304 303 303 301 300 300 300 298 297 296 296 297 298 297 298 299 298 296 294 294 292 291 288 287 286 285 286 285 282 279 275 273 272 271 270 268
Height
10756 10756 10755 10755 10753 10751 10750 10748 10745 10742 10739 10736 10731 10727 10723 10717 10711 10703 10697 10692 10685 10677 10670 10663 10655 10647 10641 10636 10630 10625 10620 10615 10611 10605 10597 10589 10580 10570 10560 10554 10555 10556 10558
10748 10748 10747 10745 10744 10743 10741 10738 10736 10733 10729 10724 10720 10715 10710 10704 10697 10691 10685 10679 10672 10666 10659 10652 10644 10638 10633 10627 10622 10617 10613 10608 10603 10598 10594 10587 10578 10568 10559 10553 10551 10552 10553
10740 10739 10737 10737 10736 10734 10731 10729 10726 10722 10717 10711 10707 10702 10697 10690 10684 10677 10672 10665 10659 10653 10646 10639 10634 10628 10624 10620 10615 10611 10606 10601 10596 10591 10587 10583 10577 10568 10560 10555 10551 10550 10550
10732 10730 10728 10727 10725 10723 10721 10718 10714 10709 10703 10698 10694 10688 10682 10676 10670 10664 10658 10652 10646 10640 10633 10628 10623 10619 10615 10612 10608 10603 10599 10594 10590 10584 10579 10576 10573 10568 10561 10555 10551 10547 10546
10722 10720 10719 10717 10714 10712 10710 10705 10700 10695 10689 10684 10679 10673 10668 10662 10656 10649 10644 10639 10632 10626 10622 10618 10613 10609 10605 10601 10597 10593 10589 10585 10581 10577 10573 10568 10565 10563 10561 10555 10549 10546 10543
10711 10710 10708 10705 10703 10700 10696 10691 10686 10680 10674 10670 10664 10658 10653 10646 10640 10634 10628 10621 10618 10615 10611 10607 10603 10599 10595 10591 10587 10582 10578 10574 10571 10568 10565 10561 10557 10553 10551 10552 10548 10543 10540
10701 10699 10696 10694 10691 10686 10682 10677 10671 10665 10659 10655 10649 10643 10636 10630 10623 10617 10612 10606 10601 10596 10593 10590 10587 10584 10580 10577 10573 10569 10565 10561 10558 10556 10553 10551 10548 10545 10542 10540 10541 10539 10535
10689 10687 10684 10680 10676 10671 10667 10661 10656 10649 10644 10639 10633 10626 10620 10614 10608 10602 10597 10591 10586 10582 10577 10574 10569 10565 10562 10558 10554 10551 10549 10546 10543 10540 10538 10538 10536 10535 10531 10530 10529 10530 10529
10676 10673 10669 10665 10660 10656 10651 10645 10640 10633 10628 10622 10616 10609 10603 10596 10592 10588 10582 10578 10573 10569 10563 10558 10554 10549 10545 10541 10537 10533 10530 10527 10525 10523 10521 10521 10520 10518 10519 10517 10515 10515 10515
10662 10658 10654 10649 10644 10639 10634 10628 10622 10616 10611 10604 10598 10591 10586 10582 10577 10572 10567 10561 10557 10551 10546 10541 10535 10530 10526 10522 10517 10513 10508 10505 10504 10502 10500 10500 10500 10500 10499 10499 10500 10499 10500
10647 10641 10636 10632 10626 10621 10616 10610 10605 10599 10594 10587 10580 10575 10570 10565 10559 10553 10548 10542 10537 10531 10526 10520 10515 10508 10503 10499 10495 10490 10486 10482 10479 10478 10475 10474 10475 10475 10477 10479 10480 10481 10481
10629 10624 10620 10615 10609 10603 10597 10592 10586 10580 10575 10568 10563 10558 10553 10546 10538 10532 10527 10521 10516 10510 10504 10497 10491 10485 10479 10474 10470 10466 10462 10458 10453 10450 10448 10446 10446 10447 10449 10451 10455 10458 10461
10614 10609 10603 10597 10592 10586 10580 10574 10568 10563 10558 10552 10545 10540 10534 10526 10518 10511 10504 10497 10490 10482 10477 10471 10464 10457 10451 10445 10439 10436 10431 10428 10424 10421 10418 10413 10414 10414 10415 10419 10422 10426 10432
10599 10593 10588 10583 10576 10569 10563 10557 10551 10544 10538 10532 10525 10517 10510 10502 10493 10485 10477 10470 10462 10454 10448 10441 10434 10427 10421 10413 10407 10402 10398 10395 10392 10388 10384 10380 10379 10379 10380 10384 10386 10391 10396
10583 10578 10573 10568 10563 10556 10549 10540 10532 10524 10515 10507 10500 10493 10485 10477 10467 10457 10449 10440 10431 10422 10413 10407 10399 10391 10384 10378 10371 10364 10360 10357 10355 10350 10347 10344 10341 10341 10342 10343 10345 10353 10358
10570 10564 10558 10552 10545 10537 10529 10520 10511 10502 10492 10483 10474 10465 10457 10447 10438 10428 10417 10406 10396 10385 10377 10369 10362 10355 10346 10338 10330 10324 10320 10316 10314 10312 10307 10303 10302 10300 10299 10302 10305 10310 10316
10553 10547 10540 10533 10525 10517 10509 10499 10489 10479 10469 10458 10447 10437 10428 10416 10405 10394 10383 10372 10362 10352 10340 10331 10320 10314 10305 10293 10285 10280 10278 10275 10271 10268 10265 10262 10258 10257 10256 10257 10262 10265 10269
10535 10528 10520 10512 10503 10494 10484 10475 10464 10453 10442 10431 10420 10408 10396 10384 10371 10359 10347 10335 10323 10310 10300 10288 10275 10267 10260 10248 10239 10233 10231 10231 10229 10225 10222 10220 10218 10213 10210 10213 10217 10221 10222
10513 10505 10496 10487 10479 10469 10459 10450 10439 10426 10415 10404 10390 10375 10361 10349 10336 10324 10311 10295 10282 10269 10255 10244 10234 10223 10221 10206 10197 10189 10188 10186 10186 10181 10179 10177 10179 10175 10172 10176 10181 10182 10184
10489 10479 10470 10461 10452 10443 10433 10422 10410 10394 10382 10373 10357 10341 10326 10313 10301 10286 10272 10255 10237 10224 10212 10204 10190 10181 10173 10165 10155 10148 10147 10150 10147 10147 10145 10137 10135 10135 10133 10135 10139 10146 10145
10464 10454 10444 10433 10421 10411 10402 10389 10376 10358 10349 10340 10327 10307 10287 10270 10255 10241 10225 10206 10192 10181 10172 10160 10152 10142 10131 10126 10116 10111 10110 10110 10112 10113 10108 10100 10090 10092 10095 10093 10096 10100 10101
10436 10427 10417 10405 10389 10376 10366 10354 10338 10320 10309 10298 10285 10268 10247 10229 10211 10193 10182 10167 10151 10140 10132 10121 10114 10105 10094 10085 10078 10075 10071 10071 10074 10074 10070 10065 10057 10052 10052 10054 10055 10060 10067
10406 10395 10386 10374 10357 10338 10322 10313 10298 10280 10267 10253 10241 10226 10208 10187 10167 10151 10138 10126 10113 10101 10095 10084 10079 10073 10061 10053 10044 10041 10038 10035 10035 10036 10037 10032 10026 10020 10020 10020 10023 10027 10032
10372 10361 10349 10338 10325 10302 10285 10261 10245 10231 10221 10208 10194 10177 10160 10145 10131 10116 10100 10089 10080 10068 10061 10054 10049 10043 10035 10025 10019 10014 10008 10005 10005 10006 10008 10004 9998 9994 9992 9991 9993 9999 10003
10335 10323 10310 10297 10282 10264 10248 10225 10203 10186 10175 10163 10149 10135 10122 10110 10098 10084 10070 10058 10047 10039 10034 10027 10023 10018 10011 10000 9994 9988 9984 9981 9979 9981 9980 9976 9974 9972 9969 9969 9969 9971 9976
10299 10286 10270 10254 10240 10225 10212 10190 10171 10153 10138 10126 10114 10101 10088 10076 10064 10054 10046 10026 10020 10011 10005 10002 9999 9995 9991 9982 9970 9964 9964 9961 9958 9959 9956 9953 9950 9950 9950 9949 9949 9949 9950